Lapse_Rate
7.0 7.0 7.1 7.2 7.2 7.3 7.4 7.2 6.9 6.8 6.7 6.7 6.7 6.6 6.7 6.6 6.7 6.4 6.4 6.8 6.9 6.7 6.5 6.3 6.2 6.3 6.4 6.4 6.3 6.3 6.2 5.9 5.8 5.5 5.3 5.1 4.9 5.0 5.0 4.4 4.1 3.8 4.0 4.1 4.1
7.0 7.1 7.2 7.2 7.4 7.4 7.4 7.2 7.0 6.9 6.9 6.8 6.7 6.7 6.6 6.8 6.9 6.7 6.8 6.6 6.4 6.3 6.2 6.0 6.1 6.1 6.1 6.2 6.3 5.9 5.7 5.1 5.3 5.3 5.3 5.2 5.1 5.6 4.8 4.3 3.9 3.3 3.1 3.3 3.8
7.0 7.1 7.2 7.2 7.2 7.4 7.4 7.2 7.1 7.1 6.9 6.7 6.6 6.7 6.7 6.8 6.7 6.7 6.5 6.4 6.4 6.3 6.1 6.1 6.0 6.1 6.1 6.1 5.9 5.4 5.5 5.1 5.3 5.2 5.0 4.6 4.7 4.5 4.1 3.7 3.4 3.4 4.2 4.5 4.4
7.0 7.1 7.1 7.1 7.2 7.4 7.4 7.3 7.1 6.9 6.7 6.6 6.5 6.5 6.6 6.5 6.7 6.4 6.4 6.3 6.2 6.2 6.1 5.6 5.8 5.8 6.0 5.7 5.4 5.7 5.3 5.3 4.8 4.4 4.2 4.2 3.8 3.8 3.3 3.2 3.5 4.4 5.4 5.8 6.2
7.0 7.0 7.1 7.2 7.3 7.4 7.4 7.2 7.0 6.8 6.8 6.7 6.5 6.5 6.4 6.3 6.6 6.4 6.3 6.0 6.0 5.8 5.5 5.5 5.6 5.8 5.7 5.4 5.4 5.3 5.2 4.5 4.3 4.1 3.8 3.5 3.5 2.6 2.6 3.2 4.2 5.3 6.0 6.4 6.5
6.9 6.9 7.1 7.2 7.3 7.4 7.4 7.3 7.0 6.8 6.9 6.7 6.6 6.7 6.4 6.7 6.3 6.5 6.1 5.9 5.8 5.6 5.5 5.4 5.5 5.6 5.5 5.5 5.0 5.3 5.0 4.5 4.2 3.6 3.9 3.2 3.7 2.6 2.4 3.5 4.9 5.5 6.4 6.5 6.3
7.0 7.1 7.1 7.2 7.3 7.4 7.5 7.4 7.2 7.0 6.8 6.7 6.6 6.5 6.4 6.6 6.6 6.3 5.8 5.7 5.7 5.5 5.5 5.4 5.2 5.1 5.3 5.3 4.9 5.2 5.1 4.5 4.3 4.0 3.2 2.8 3.6 3.1 2.5 4.0 4.6 5.2 5.8 5.8 5.8
7.0 7.2 7.2 7.2 7.3 7.4 7.5 7.4 7.2 6.9 6.7 6.6 6.6 6.5 6.8 6.6 6.3 5.7 5.7 5.8 5.6 5.4 5.4 5.2 5.1 5.2 5.1 5.3 4.8 5.0 4.4 4.2 4.1 3.7 3.6 3.1 4.0 3.1 2.9 4.4 4.7 5.3 5.7 5.6 5.8
7.0 7.1 7.2 7.2 7.3 7.3 7.4 7.4 7.1 6.7 6.6 6.6 6.7 6.7 6.6 6.3 6.1 5.8 5.7 5.5 5.4 5.4 5.2 4.9 4.9 5.4 5.2 5.1 4.8 4.5 3.9 3.6 4.0 3.6 3.9 3.4 3.9 3.0 3.0 4.3 4.8 5.0 5.6 5.5 5.7
7.0 7.0 7.1 7.2 7.2 7.3 7.4 7.3 7.0 6.6 6.7 6.6 6.6 6.6 6.5 6.2 6.0 5.9 5.6 5.5 5.4 5.4 5.1 4.7 5.0 4.9 5.2 4.5 3.1 3.6 3.3 3.5 4.3 4.3 4.3 3.7 4.1 3.5 4.2 5.8 5.9 5.5 5.5 5.4 5.5
6.9 6.9 7.0 7.1 7.2 7.2 7.2 7.1 7.0 6.7 6.6 6.6 6.4 6.3 6.3 6.0 5.9 5.6 5.6 5.6 5.5 5.3 5.0 4.6 4.6 4.5 4.2 3.9 3.5 3.6 3.9 3.5 4.5 3.5 3.9 3.9 4.0 4.3 5.1 5.5 5.7 5.8 5.2 5.5 5.6
6.7 6.7 6.7 6.9 7.0 7.1 7.1 7.1 7.0 6.9 6.4 6.5 6.5 6.4 6.3 6.2 6.0 5.6 5.6 5.4 5.4 5.2 5.1 4.5 4.4 4.1 3.9 4.1 3.9 4.2 4.4 4.1 4.0 4.2 3.7 4.0 4.1 4.4 5.0 5.3 5.4 5.3 4.9 5.1 5.6
6.6 6.7 6.7 6.7 6.8 7.0 7.0 7.0 7.0 6.7 6.7 6.6 6.5 6.3 6.3 6.2 5.8 5.7 5.6 5.5 5.3 5.1 5.0 4.7 4.3 4.0 3.9 4.0 4.4 3.9 3.9 4.0 2.5 4.4 3.6 3.2 4.1 4.3 4.9 5.2 5.1 5.0 5.2 5.3 5.3
6.4 6.5 6.6 6.7 6.8 6.8 6.9 7.0 6.9 6.7 6.6 6.4 6.3 6.0 5.8 5.8 5.7 5.5 5.2 5.2 5.0 4.8 4.6 4.4 4.3 4.2 4.1 4.0 3.8 3.6 3.5 4.1 3.7 3.6 3.4 2.7 2.0 3.6 4.4 4.6 4.5 4.7 5.0 5.3 5.3
6.2 6.3 6.4 6.6 6.6 6.6 6.7 6.8 6.8 6.5 6.0 6.1 6.1 5.8 5.8 5.5 5.4 5.3 5.2 5.2 4.9 4.8 4.5 4.9 4.7 4.5 4.0 3.5 3.4 3.3 3.4 3.9 3.6 3.1 3.0 2.6 2.3 4.4 4.3 4.4 4.5 4.4 4.5 4.6 4.6
6.2 6.2 6.3 6.4 6.4 6.5 6.5 6.7 6.7 6.7 5.9 6.4 6.0 5.9 5.9 5.9 5.7 5.4 5.0 4.8 5.0 4.9 4.8 4.7 4.4 4.2 3.9 3.4 3.6 3.3 3.4 3.5 3.1 2.8 0.8 2.8 2.9 4.4 4.4 4.0 4.1 4.3 4.3 4.4 4.0
6.2 6.2 6.3 6.3 6.4 6.4 6.4 6.6 6.7 6.6 6.2 6.1 6.0 6.0 5.9 5.9 5.7 5.5 5.3 4.9 4.4 4.1 4.5 4.5 4.4 4.0 4.1 3.3 3.1 3.0 3.6 1.9 2.2 1.6 1.1 2.7 2.5 5.6 5.1 4.8 4.5 4.4 4.4 4.3 4.1
6.2 6.3 6.2 6.2 6.3 6.4 6.5 6.7 6.7 6.2 6.1 6.1 6.1 6.0 5.8 5.4 5.5 5.2 5.0 4.6 4.2 3.6 3.4 3.7 4.2 4.1 4.1 3.6 2.8 2.4 2.2 2.3 1.0 1.1 0.9 2.6 2.4 5.0 4.7 4.6 4.3 4.0 3.8 3.7 3.9
6.2 6.4 6.3 6.3 6.4 6.5 6.5 6.6 6.3 6.1 6.0 5.9 6.0 5.9 5.7 5.5 5.2 5.0 5.0 4.6 4.2 3.9 3.6 3.4 4.0 4.2 4.0 3.5 3.0 2.6 2.0 2.0 0.8 0.6 -0.4 2.4 3.7 4.3 4.7 4.3 3.9 3.7 3.7 3.5 3.3
6.3 6.4 6.4 6.5 6.5 6.6 6.6 6.5 6.3 6.2 6.1 6.1 6.0 5.9 5.6 5.3 5.2 5.1 5.0 4.5 4.2 4.0 3.8 3.9 3.6 4.2 3.9 3.4 2.8 2.5 2.2 1.7 1.8 -0.1 1.0 1.6 2.6 4.8 4.8 4.3 3.7 3.4 3.1 3.0 3.3
6.4 6.5 6.5 6.5 6.5 6.5 6.5 6.3 6.3 6.2 6.1 6.1 6.0 5.8 5.5 5.1 5.5 5.2 4.9 4.7 4.3 4.1 4.0 3.6 3.4 4.5 3.6 3.7 3.3 2.2 2.1 1.9 1.4 1.3 -0.6 -0.3 3.7 5.3 5.0 4.3 3.6 3.0 2.9 2.8 3.3
6.4 6.4 6.4 6.5 6.4 6.5 6.4 6.3 6.2 6.2 6.2 6.0 6.0 5.8 5.5 5.2 5.2 5.0 4.7 4.5 4.4 4.0 4.0 3.8 3.4 4.2 3.9 3.5 3.1 2.4 2.1 1.5 1.6 1.0 1.4 1.0 2.6 5.4 4.7 4.0 3.3 3.0 2.7 2.9 3.2
6.5 6.4 6.4 6.3 6.3 6.3 6.4 6.3 6.4 6.4 6.3 6.2 6.0 5.9 5.5 5.2 4.8 5.0 4.8 4.6 4.6 4.4 3.8 3.9 3.9 3.6 4.2 3.4 3.0 2.5 2.1 1.7 1.2 0.3 1.0 0.1 4.2 5.3 4.5 3.6 3.5 2.9 2.4 2.5 2.8
6.6 6.4 6.4 6.2 6.1 6.2 6.2 6.2 6.1 6.2 6.3 6.2 5.9 5.8 5.5 5.4 5.1 5.0 4.7 4.7 4.6 4.5 4.3 3.7 3.9 3.8 4.2 4.2 3.4 2.8 2.2 1.7 1.3 0.5 1.5 3.1 4.5 5.2 4.1 3.4 3.6 3.1 2.3 2.7 2.8
6.4 6.3 6.3 6.2 6.2 6.1 6.0 6.0 6.0 5.9 6.0 6.1 5.9 5.7 5.3 4.9 4.9 5.1 5.0 4.9 4.8 4.5 4.3 3.3 3.2 3.5 4.0 3.9 4.0 3.7 3.1 2.5 2.7 3.2 1.8 4.2 3.4 4.6 3.4 3.0 3.1 2.4 2.9 2.8 2.7
6.1 6.2 6.3 6.2 6.2 6.1 5.9 5.8 5.8 5.7 5.6 5.9 5.8 5.6 5.4 5.1 4.9 4.8 4.7 4.7 4.5 4.0 3.9 3.8 3.2 2.4 4.7 4.4 3.6 3.9 4.3 3.9 3.9 3.5 2.6 3.5 3.6 3.5 2.9 3.5 3.0 2.4 2.9 2.8 2.7
5.9 5.9 6.0 6.2 6.2 6.0 5.9 5.8 5.7 5.6 5.7 5.6 5.5 5.4 5.5 5.4 5.1 4.9 4.9 5.0 5.2 4.6 4.1 3.8 3.3 2.3 3.7 4.3 4.1 4.3 4.4 3.7 3.7 3.8 3.2 3.2 3.7 2.6 2.7 3.7 3.1 2.6 3.0 2.3 2.2
Wind_Speed
10 10 10 10 11 11 11 11 11 13 14 11 8 8 6 1 9 23 25 18 16 28 20 9 7 8 5 5 6 1 4 1 3 3 3 5 5 4 5 3 4 4 3 2 6
10 9 8 8 9 9 9 9 10 12 13 13 10 8 5 3 2 21 24 27 25 29 8 9 7 8 5 5 5 6 4 0 0 1 2 5 2 4 4 7 2 3 4 5 4
10 9 8 7 7 8 9 9 10 12 13 12 11 8 8 1 5 8 31 27 24 26 5 4 2 3 6 5 6 4 3 2 3 2 1 2 4 2 4 3 3 3 4 5 5
9 9 8 6 6 6 8 9 9 11 12 14 15 10 11 3 4 6 28 23 19 19 9 12 8 5 5 5 5 4 3 1 4 2 2 4 4 3 5 6 6 4 5 4 8
9 9 8 7 5 6 7 8 9 10 12 15 18 9 5 7 3 14 23 18 12 9 14 5 10 3 5 2 2 4 3 6 6 7 5 4 7 4 9 9 5 6 6 7 7
10 10 9 7 5 6 7 8 8 10 11 13 18 9 7 10 10 15 20 8 7 7 8 8 4 2 5 3 3 2 3 7 4 4 5 2 5 1 5 3 6 6 6 6 6
12 12 10 7 6 7 6 6 6 10 12 12 13 5 10 5 3 17 17 3 5 4 5 4 5 10 3 3 4 2 5 8 2 4 5 2 8 6 5 3 6 6 6 6 5
13 13 10 9 9 7 7 7 9 13 13 10 8 5 5 3 5 9 11 5 8 4 2 4 3 4 6 6 5 6 5 6 4 7 4 2 7 8 7 2 6 7 6 6 5
13 10 10 10 9 8 9 9 9 17 8 9 5 5 3 2 6 6 6 4 8 5 4 3 5 5 8 4 5 7 4 4 8 3 6 6 13 6 11 8 4 8 7 7 5
15 9 9 10 10 10 13 7 10 9 9 2 3 3 5 6 6 6 7 5 3 4 5 9 6 4 5 9 3 6 6 5 8 9 7 15 20 15 13 11 11 9 8 7 5
15 12 9 11 11 12 8 3 4 5 11 6 2 4 5 7 4 13 5 7 5 8 5 6 8 5 6 2 1 6 4 7 8 8 16 5 16 20 16 6 6 8 8 7 7
16 12 12 10 11 11 5 5 2 2 7 5 3 2 2 2 6 10 8 6 7 5 5 5 2 3 5 3 5 4 3 7 12 3 9 9 19 13 6 4 7 8 6 6 2
14 16 12 12 8 8 5 3 3 2 5 2 2 3 4 4 3 8 7 2 5 5 6 4 1 5 2 1 9 4 4 3 6 12 3 10 7 7 5 3 4 4 4 3 3
14 16 16 11 5 0 3 4 5 2 4 9 6 4 3 1 4 3 5 2 7 3 2 1 2 4 2 3 4 4 5 12 13 4 2 7 5 5 6 5 3 2 1 0 3
15 16 15 12 3 3 1 5 5 2 5 5 5 2 4 6 5 7 5 6 3 3 3 1 4 4 4 3 1 10 15 13 2 4 4 5 3 7 4 4 6 7 4 5 6
14 15 12 6 4 1 3 3 2 5 3 4 3 6 4 5 4 5 7 7 2 2 1 1 1 2 2 5 2 14 5 2 3 3 3 4 4 6 3 5 4 4 6 7 8
12 12 7 2 1 3 2 3 4 6 2 6 5 5 1 5 5 7 5 8 5 7 8 7 1 2 3 4 1 8 7 5 8 5 4 1 2 11 7 10 8 6 8 8 9
12 6 5 3 2 1 2 3 8 1 1 3 3 4 4 7 3 7 3 4 6 4 3 4 6 3 4 4 4 5 5 4 5 4 6 5 6 6 6 6 4 5 8 9 15
8 2 2 5 2 2 3 6 3 2 1 6 5 2 2 1 0 6 3 3 3 2 3 3 5 2 3 2 4 2 5 2 3 0 3 4 8 10 7 9 8 9 10 15 21
2 2 2 3 1 3 5 3 2 0 1 1 1 1 3 5 5 5 3 3 2 4 2 2 5 2 2 3 3 5 4 3 3 4 6 4 7 7 6 11 10 10 12 19 21
3 3 2 2 2 5 4 4 2 1 1 0 2 1 2 3 0 2 3 3 3 4 4 4 3 2 3 4 7 2 2 4 4 4 4 4 8 8 10 10 10 11 15 20 23
2 2 2 2 4 2 2 2 2 3 1 1 3 3 3 0 2 2 3 4 6 6 4 3 5 5 6 1 3 4 6 5 4 6 2 3 9 6 10 9 7 13 16 20 22
2 2 2 2 3 2 2 0 2 3 3 3 3 3 3 2 2 3 2 2 7 6 6 4 1 6 4 3 4 2 3 4 4 3 7 5 9 4 4 8 9 15 17 22 24
2 3 4 4 2 6 3 2 2 1 2 2 1 2 2 2 5 3 3 3 6 3 6 6 3 6 7 8 4 2 5 4 6 3 4 10 17 28 19 22 23 21 22 24 23
3 2 3 3 3 3 2 3 2 3 1 2 1 5 5 1 2 4 4 1 2 5 3 4 5 5 14 20 14 16 14 9 13 10 7 7 8 23 24 23 23 21 26 25 25
2 3 3 1 0 3 1 5 5 2 6 3 4 3 7 5 7 4 3 4 5 2 5 2 4 4 6 6 7 9 14 15 19 17 18 29 32 26 20 9 19 22 25 23 25
1 2 4 1 2 3 4 5 5 6 4 4 6 3 5 9 5 4 4 1 4 8 7 5 1 4 6 7 12 5 8 10 4 5 7 5 14 3 13 18 20 24 23 22 27
Wind_Direction
58 54 55 53 53 52 53 47 39 20 21 20 15 23 46 10 0 29 36 358 350 346 339 318 16 2 29 51 35 25 68 147 349 345 303 11 10 324 301 330 349 36 62 108 39
52 49 50 49 46 48 41 30 15 11 10 17 14 6 7 346 55 36 356 358 356 352 355 4 357 1 50 20 20 56 74 17 314 221 281 322 354 298 341 329 293 110 46 55 60
45 41 40 41 38 33 26 13 2 360 0 357 350 340 337 179 73 338 351 355 358 353 314 355 336 59 59 22 3 8 113 234 220 192 175 279 286 290 307 294 197 216 109 137 127
35 35 34 30 26 23 15 10 3 357 355 352 349 336 56 34 59 299 343 351 355 359 31 17 22 47 62 43 335 87 29 277 279 351 312 279 279 276 247 241 194 175 136 105 57
29 24 21 17 12 15 11 5 3 2 353 354 6 49 63 47 61 305 340 350 354 359 31 31 42 44 68 23 22 58 319 308 298 300 267 282 271 260 270 264 209 135 106 94 86
31 12 358 2 8 9 8 5 18 10 359 2 6 26 65 70 257 328 349 350 2 13 13 30 55 330 87 18 49 316 278 285 304 19 299 242 279 30 279 279 141 119 110 114 109
28 28 23 33 23 3 360 2 3 351 348 356 5 76 62 125 226 349 359 313 353 3 25 25 14 67 331 2 356 354 332 341 46 18 329 52 283 241 239 99 159 162 156 157 157
26 27 33 29 11 356 346 336 332 332 323 333 352 66 86 267 298 333 349 331 345 353 23 335 24 66 44 317 29 26 54 346 285 25 325 94 267 273 308 219 239 184 174 172 193
15 15 24 15 7 357 339 325 329 333 329 331 52 89 38 2 12 316 12 326 311 339 23 27 55 72 2 25 21 12 275 288 312 52 4 32 286 240 307 303 251 203 193 188 200
19 20 15 12 3 350 335 305 326 12 353 29 84 50 37 319 307 332 328 346 353 351 22 34 47 68 31 28 355 314 333 290 281 325 349 299 268 288 277 265 246 207 203 199 179
19 15 356 359 359 347 348 17 24 358 33 74 327 107 337 307 306 349 354 342 20 49 41 18 55 22 317 7 233 263 245 258 270 302 338 309 294 298 303 215 227 194 201 192 179
11 5 360 346 351 4 72 73 51 170 80 22 125 58 299 345 6 346 6 53 35 52 346 32 64 265 293 120 346 294 290 288 289 311 324 311 304 304 320 207 181 183 197 185 138
2 5 352 345 341 38 68 74 1 3 83 9 64 45 335 24 54 326 21 25 55 53 21 108 272 312 7 10 357 298 228 263 283 324 322 320 317 341 331 13 105 105 129 95 41
356 356 352 344 60 54 48 342 0 24 81 335 351 16 359 96 44 352 358 61 36 61 357 110 6 354 321 49 31 290 205 315 308 31 324 28 295 313 329 325 101 99 149 64 309
357 355 359 35 144 57 288 328 335 58 52 345 340 302 17 71 310 13 6 24 84 321 53 303 2 2 10 357 117 258 313 304 271 94 56 349 50 270 312 258 230 219 255 288 277
357 357 0 28 51 333 326 341 55 45 305 341 343 355 24 25 7 324 14 34 50 21 340 282 54 72 269 321 223 287 335 344 58 85 30 248 99 280 267 249 278 239 274 299 315
352 354 23 28 141 328 352 48 37 90 12 332 332 3 32 334 357 31 45 17 49 16 12 338 291 43 17 330 7 7 17 347 0 7 242 265 28 246 269 276 245 233 281 301 287
340 346 33 47 8 8 61 60 68 89 334 5 344 321 26 4 23 15 55 39 46 47 39 31 329 25 347 121 193 17 108 133 253 286 293 350 234 257 230 237 261 265 273 289 314
340 15 34 347 357 56 78 50 188 184 351 345 316 342 316 333 312 34 60 162 222 157 95 23 271 112 44 104 118 319 51 187 95 229 353 255 288 293 231 267 292 287 302 306 317
40 15 332 347 7 64 70 144 178 55 39 172 82 67 308 324 11 41 6 219 207 189 150 188 314 151 136 85 45 105 155 30 14 1 303 289 283 245 276 252 278 299 298 303 305
45 38 272 350 60 48 100 191 171 162 192 233 220 278 228 310 236 280 249 222 198 171 117 127 90 277 104 188 175 67 24 48 118 133 190 298 266 221 234 239 253 271 287 304 309
61 7 327 346 44 41 91 141 146 179 148 176 88 128 187 114 298 273 265 210 166 149 153 205 152 276 236 287 151 135 178 138 131 268 203 158 269 240 233 248 267 274 297 302 306
57 271 346 55 82 34 259 123 190 161 217 183 197 200 182 208 343 222 255 122 166 160 166 190 269 313 331 25 356 184 210 126 119 97 208 150 263 282 282 271 271 298 306 306 308
68 9 337 48 51 124 148 215 239 194 210 172 148 107 136 234 205 280 258 184 191 178 145 147 185 199 219 245 133 189 188 205 139 152 204 227 282 295 304 310 315 314 312 309 309
34 220 181 305 353 100 112 158 178 241 250 163 230 216 169 282 239 232 228 158 163 211 102 136 246 212 260 265 268 265 258 192 202 205 202 270 220 278 294 302 305 310 309 312 309
115 120 359 182 19 129 160 223 203 211 149 233 212 186 182 196 201 241 175 203 204 123 164 163 271 345 280 267 225 251 249 222 227 245 254 262 272 278 283 297 303 306 307 310 312
283 24 110 216 91 87 225 192 213 153 195 176 192 148 215 238 233 222 218 153 182 161 192 169 270 2 272 324 306 297 223 185 201 217 178 215 268 281 309 304 307 309 306 306 312